When you browse on this site, cookies collect data to enhance your experience and personalize the content and advertising you see.
Visit our Privacy Policy to learn more. By continuing to use the site, you agree to this use of cookies and data.
  • en Belgique
  • Liste des pays
  • À 7 jours
  • Température de l'eau
  • Carte satellitaire
  • Carte météo
  • Widgets météo
  • user-avatar
    Se connecter

    Météo par heure à Albena

    Ce jour, 23 Mars, Samedi

    Heure Température Précipitation Vent Pression Humidité
    00:00 +8°C° 0 mm 2 m/s 753 mmHg 66%
    01:00 +8°C° 0 mm 2 m/s 753 mmHg 65%
    02:00 +8°C° 0 mm 3 m/s 753 mmHg 60%
    03:00 +8°C° 0 mm 3 m/s 753 mmHg 65%
    04:00 +8°C° 0 mm 3 m/s 752 mmHg 70%
    05:00 +7°C° 0 mm 4 m/s 752 mmHg 75%
    06:00 +7°C° 0 mm 4 m/s 752 mmHg 73%
    07:00 +8°C° 0 mm 4 m/s 752 mmHg 70%
    08:00 +9°C° 0 mm 5 m/s 753 mmHg 66%
    09:00 +9°C° 0 mm 5 m/s 752 mmHg 61%
    10:00 +10°C° 0 mm 5 m/s 752 mmHg 57%
    11:00 +10°C° 0 mm 5 m/s 752 mmHg 52%
    12:00 +10°C° 0 mm 5 m/s 752 mmHg 49%
    13:00 +10°C° 0 mm 5 m/s 752 mmHg 47%
    14:00 +10°C° 0 mm 5 m/s 752 mmHg 45%
    15:00 +11°C° 0 mm 4 m/s 752 mmHg 44%
    16:00 +11°C° 0 mm 4 m/s 752 mmHg 42%
    17:00 +11°C° 0 mm 4 m/s 752 mmHg 41%
    18:00 +10°C° 0 mm 3 m/s 752 mmHg 44%
    19:00 +9°C° 0 mm 3 m/s 752 mmHg 47%
    20:00 +8°C° 0 mm 2 m/s 752 mmHg 50%
    21:00 +7°C° 0 mm 2 m/s 753 mmHg 53%
    22:00 +7°C° 0 mm 1 m/s 753 mmHg 56%
    23:00 +6°C° 0 mm 1 m/s 753 mmHg 59%

    Demain, 24 Mars, Dimanche

    Heure Température Précipitation Vent Pression Humidité
    00:00 +6°C° 0 mm 1 m/s 753 mmHg 60%
    01:00 +5°C° 0 mm 1 m/s 753 mmHg 60%
    02:00 +5°C° 0 mm 1 m/s 753 mmHg 60%
    03:00 +4°C° 0 mm 2 m/s 752 mmHg 59%
    04:00 +4°C° 0 mm 2 m/s 752 mmHg 58%
    05:00 +3°C° 0 mm 2 m/s 752 mmHg 57%
    06:00 +3°C° 0 mm 3 m/s 752 mmHg 55%
    07:00 +4°C° 0 mm 3 m/s 752 mmHg 52%
    08:00 +5°C° 0 mm 3 m/s 752 mmHg 50%
    09:00 +7°C° 0 mm 3 m/s 752 mmHg 46%
    10:00 +9°C° 0 mm 3 m/s 752 mmHg 43%
    11:00 +10°C° 0 mm 3 m/s 752 mmHg 39%
    12:00 +11°C° 0 mm 3 m/s 752 mmHg 38%
    13:00 +11°C° 0 mm 3 m/s 752 mmHg 37%
    14:00 +12°C° 0 mm 3 m/s 751 mmHg 36%
    15:00 +12°C° 0 mm 3 m/s 751 mmHg 39%
    16:00 +11°C° 0 mm 3 m/s 750 mmHg 42%
    17:00 +11°C° 0 mm 3 m/s 750 mmHg 45%
    18:00 +9°C° 0 mm 2 m/s 750 mmHg 51%
    19:00 +8°C° 0 mm 2 m/s 750 mmHg 58%
    20:00 +6°C° 0 mm 2 m/s 750 mmHg 65%
    21:00 +6°C° 0 mm 2 m/s 750 mmHg 67%
    22:00 +6°C° 0 mm 2 m/s 750 mmHg 68%
    23:00 +5°C° 0 mm 2 m/s 749 mmHg 70%

    Après-demain, 25 Mars, Lundi

    Heure Température Précipitation Vent Pression Humidité
    00:00 +5°C° 0 mm 2 m/s 749 mmHg 70%
    01:00 +5°C° 0 mm 2 m/s 749 mmHg 70%
    02:00 +5°C° 0 mm 2 m/s 749 mmHg 70%
    03:00 +5°C° 0 mm 2 m/s 748 mmHg 70%
    04:00 +5°C° 0 mm 2 m/s 748 mmHg 70%
    05:00 +4°C° 0 mm 2 m/s 747 mmHg 70%
    06:00 +6°C° 0 mm 2 m/s 747 mmHg 66%
    07:00 +7°C° 0 mm 2 m/s 747 mmHg 62%
    08:00 +8°C° 0 mm 2 m/s 747 mmHg 58%
    09:00 +10°C° 0 mm 2 m/s 747 mmHg 52%
    10:00 +12°C° 0 mm 3 m/s 747 mmHg 47%
    11:00 +14°C° 0 mm 3 m/s 746 mmHg 41%
    12:00 +14°C° 0 mm 4 m/s 746 mmHg 42%
    13:00 +15°C° 0 mm 5 m/s 745 mmHg 42%
    14:00 +15°C° 0 mm 5 m/s 745 mmHg 42%
    15:00 +14°C° 0 mm 5 m/s 744 mmHg 46%
    16:00 +13°C° 0 mm 5 m/s 744 mmHg 50%
    17:00 +13°C° 0 mm 5 m/s 743 mmHg 54%
    18:00 +10°C° 0 mm 5 m/s 743 mmHg 59%
    19:00 +10°C° 0 mm 4 m/s 743 mmHg 65%
    20:00 +7°C° 0 mm 4 m/s 743 mmHg 70%
    21:00 +8°C° 0 mm 3 m/s 743 mmHg 72%
    22:00 +8°C° 0 mm 3 m/s 743 mmHg 74%
    23:00 +7°C° 0 mm 3 m/s 743 mmHg 76%

    26 Mars, Mardi

    Heure Température Précipitation Vent Pression Humidité
    00:00 +7°C° 0 mm 3 m/s 743 mmHg 78%
    01:00 +7°C° 0 mm 3 m/s 743 mmHg 81%
    02:00 +7°C° 0 mm 3 m/s 743 mmHg 84%
    03:00 +7°C° 0 mm 3 m/s 743 mmHg 84%
    04:00 +5°C° 0 mm 3 m/s 743 mmHg 85%
    05:00 +5°C° 0 mm 3 m/s 743 mmHg 85%
    06:00 +7°C° 0 mm 3 m/s 743 mmHg 81%
    07:00 +8°C° 0 mm 2 m/s 743 mmHg 76%
    08:00 +9°C° 0 mm 2 m/s 744 mmHg 71%
    09:00 +12°C° 0 mm 2 m/s 744 mmHg 63%
    10:00 +13°C° 0 mm 3 m/s 744 mmHg 56%
    11:00 +16°C° 0 mm 3 m/s 745 mmHg 49%
    12:00 +17°C° 0 mm 3 m/s 745 mmHg 48%
    13:00 +17°C° 0 mm 3 m/s 745 mmHg 48%
    14:00 +18°C° 0 mm 3 m/s 745 mmHg 48%
    15:00 +15°C° 0.1 mm 5 m/s 746 mmHg 56%
    16:00 +11°C° 0.1 mm 7 m/s 746 mmHg 65%
    17:00 +8°C° 0.1 mm 9 m/s 746 mmHg 74%
    18:00 +7°C° 0.1 mm 8 m/s 747 mmHg 75%
    19:00 +8°C° 0.1 mm 7 m/s 748 mmHg 75%
    20:00 +7°C° 0.1 mm 5 m/s 748 mmHg 76%
    21:00 +7°C° 0.2 mm 5 m/s 749 mmHg 75%
    22:00 +7°C° 0.2 mm 5 m/s 749 mmHg 74%
    23:00 +7°C° 0.2 mm 5 m/s 750 mmHg 74%

    27 Mars, Mercredi

    Heure Température Précipitation Vent Pression Humidité
    00:00 +6°C° 0 mm 5 m/s 750 mmHg 73%
    01:00 +6°C° 0 mm 5 m/s 750 mmHg 72%
    02:00 +5°C° 0 mm 5 m/s 750 mmHg 71%
    03:00 +4°C° 0 mm 6 m/s 751 mmHg 69%
    04:00 +3°C° 0 mm 6 m/s 751 mmHg 67%
    05:00 +3°C° 0 mm 6 m/s 751 mmHg 65%
    06:00 +3°C° 0 mm 6 m/s 752 mmHg 62%
    07:00 +3°C° 0 mm 5 m/s 752 mmHg 59%
    08:00 +5°C° 0 mm 5 m/s 753 mmHg 55%
    09:00 +6°C° 0 mm 5 m/s 753 mmHg 51%
    10:00 +7°C° 0 mm 4 m/s 753 mmHg 46%
    11:00 +8°C° 0 mm 4 m/s 753 mmHg 41%
    12:00 +10°C° 0 mm 4 m/s 753 mmHg 41%
    13:00 +10°C° 0 mm 4 m/s 753 mmHg 42%
    14:00 +11°C° 0 mm 3 m/s 753 mmHg 42%
    15:00 +10°C° 0 mm 3 m/s 753 mmHg 43%
    16:00 +10°C° 0 mm 4 m/s 753 mmHg 45%
    17:00 +8°C° 0 mm 4 m/s 754 mmHg 46%
    18:00 +8°C° 0 mm 3 m/s 754 mmHg 51%
    19:00 +7°C° 0 mm 3 m/s 754 mmHg 55%
    20:00 +4°C° 0 mm 3 m/s 755 mmHg 59%
    21:00 +5°C° 0 mm 2 m/s 755 mmHg 58%
    22:00 +5°C° 0 mm 2 m/s 755 mmHg 58%
    23:00 +5°C° 0 mm 2 m/s 755 mmHg 57%

    28 Mars, Jeudi

    Heure Température Précipitation Vent Pression Humidité
    00:00 +3°C° 0 mm 3 m/s 755 mmHg 57%
    01:00 +3°C° 0 mm 4 m/s 756 mmHg 57%
    02:00 +3°C° 0 mm 4 m/s 756 mmHg 58%
    03:00 +2°C° 0 mm 5 m/s 756 mmHg 59%
    04:00 +1°C° 0 mm 5 m/s 756 mmHg 61%
    05:00 +1°C° 0 mm 5 m/s 756 mmHg 62%
    06:00 +2°C° 0 mm 5 m/s 756 mmHg 60%
    07:00 +2°C° 0 mm 5 m/s 757 mmHg 58%
    08:00 +3°C° 0 mm 6 m/s 757 mmHg 55%
    09:00 +4°C° 0 mm 6 m/s 757 mmHg 51%
    10:00 +5°C° 0 mm 6 m/s 757 mmHg 48%
    11:00 +7°C° 0 mm 6 m/s 758 mmHg 44%
    12:00 +7°C° 0 mm 6 m/s 757 mmHg 42%
    13:00 +7°C° 0 mm 6 m/s 757 mmHg 40%
    14:00 +7°C° 0 mm 6 m/s 757 mmHg 39%
    15:00 +7°C° 0 mm 6 m/s 757 mmHg 40%
    16:00 +5°C° 0 mm 6 m/s 757 mmHg 41%
    17:00 +5°C° 0 mm 6 m/s 757 mmHg 42%
    18:00 +4°C° 0 mm 6 m/s 757 mmHg 46%
    19:00 +3°C° 0 mm 5 m/s 757 mmHg 51%
    20:00 +1°C° 0 mm 4 m/s 757 mmHg 55%
    21:00 +1°C° 0 mm 4 m/s 757 mmHg 56%
    22:00 +1°C° 0 mm 4 m/s 757 mmHg 57%
    23:00 +2°C° 0 mm 3 m/s 758 mmHg 57%
    Voir plus